User: anonymous   Login
Location: Caltech
(34.1382°N, 118.1253°W)
Time: 20:44:43
(UTC-07:00)
Language:

Cosmos 1833 - Orbit

View from above orbital plane
View from above orbital plane
View from above satellite
View from above satellite

Ground track
Ground track

The orbit data is extracted from the following two-line orbital elements,

1 17589U 87027A   17229.93907611 -.00000328 +00000-0 -14955-3 0  9993
2 17589 070.9165 055.0147 0030638 221.7034 138.1751 14.12880238568799
Epoch (UTC): 17 August 2017 22:32:16
Eccentricity: 0.0030638
inclination: 70.9165°
perigee height: 827 km
apogee height: 871 km
right ascension of ascending node: 55.0147°
argument of perigee: 221.7034°
revolutions per day: 14.12880238
mean anomaly at epoch: 138.1751°
orbit number at epoch: 56879

The dashed part of the orbit path shows where the satellite is in the earth's shadow,  

DLR